Hourly Data Report for September 11, 2020

SHEARWATER RCS
NOVA SCOTIA
Current Station Operator: ECCC - MSC

44°37'47.000" N
63°30'48.000" W
24.00 m
8205092
71264
AAW

Download Data

Hourly Data (September 2020)
Hourly Data Report for September 11, 2020
TIME Temp Definition
°C
Dew Point Definition
°C
Rel Hum Definition
%
Wind Dir Definition
10's deg

Wind Spd Definition
km/h
Visibility Definition
km
Stn Press Definition
kPa
Hmdx Definition


Wind Chill Definition


Weather Definition


00:00 20.1 19.4 96 22 10   101.40 27   LegendNANA
01:00 19.8 19.1 96 24 8   101.29     LegendNANA
02:00 20.1 19.5 96 24 9   101.18 27   LegendNANA
03:00 19.9 19.3 96 23 7   101.14     LegendNANA
04:00 18.7 17.6 93 33 20   101.20     LegendNANA
05:00 16.4 15.2 92 36 15   101.22     LegendNANA
06:00 15.6 14.3 92 35 16   101.30     LegendNANA
07:00 15.1 13.8 92 34 16   101.30     LegendNANA
08:00 15.0 13.5 91 35 15   101.30     LegendNANA
09:00 15.5 12.8 84 35 16   101.37     LegendNANA
10:00 15.0 12.2 84 35 21   101.45     LegendNANA
11:00 15.3 11.5 78 36 22   101.46     LegendNANA
12:00 15.5 10.8 73 35 19   101.52     LegendNANA
13:00 16.0 9.3 65 34 26   101.53     LegendNANA
14:00 16.2 9.6 65 34 23   101.58     LegendNANA
15:00 16.6 9.7 64 35 20   101.60     LegendNANA
16:00 15.1 9.0 67 35 21   101.67     LegendNANA
17:00 14.8 8.2 64 35 19   101.72     LegendNANA
18:00 13.7 7.5 66 35 18   101.81     LegendNANA
19:00 12.1 7.6 74 35 11   101.90     LegendNANA
20:00 11.2 8.1 81 34 9   101.98     LegendNANA
21:00 11.0 7.4 78 34 10   102.04     LegendNANA
22:00 10.5 7.2 80 35 11   102.06     LegendNANA
23:00 9.7 6.7 82 33 9   102.09     LegendNANA

Notes on Data Quality.

Legend

  • E = Estimated
  • M = Missing
  • NA = Not Available*
  • [empty] = Indicates an unobserved value
Date modified: